SCP
0 0 0 0 0 0 0 0 0 0 0 0 0 0 0 0 0 0 0 0 0 0 0 0 0 0 0 0 0 0 0 0 0 0 0 0 0 0 0 0 0 0 0 0
0 0 0 0 0 0 0 0 0 0 0 0 0 0 0 0 0 0 0 0 0 0 0 0 0 0 0 0 0 0 0 0 0 0 0 0 0 0 0 0 0 0 0 0
0 0 0 0 0 0 0 0 0 0 0 0 0 0 0 0 0 0 0 0 0 0 0 0 0 0 0 0 0 0 0 0 0 0 0 0 0 0 0 0 0 0 0 0
0 0 0 0 0 0 0 0 0 0 0 0 0 0 0 0 0 0 0 0 0 0 0 0 0 0 0 0 0 0 0 0 0 0 0 0 0 0 0 0 0 0 0 0
0 0 0 0 0 0 0 0 0 0 0 0 0 0 0 0 0 0 0 0 0 0 0 0 0 0 0 0 0 0 0 0 0 0 0 0 0 0 0 0 0 0 0 0
0 0 0 0 0 0 0 0 0 0 0 0 0 0 0 0 0 0 0 0 0 0 0 0 0 0 0 0 0 0 0 0 0 0 0 0 0 0 0 0 0 0 0 0
0 0 0 0 0 0 0 0 0 0 0 0 0 0 0 0 0 0 0 0 0 0 0 0 0 0 0 0 0 0 0 0 0 0 0 0 0 0 0 0 0 0 0 0
0 0 0 0 0 0 0 0 0 0 0 0 0 0 0 0 0 0 0 0 0 0 0 0 0 0 0 0 0 0 0 0 0 0 0 0 0 0 0 0 0 0 0 0
0 0 0 0 0 0 0 0 0 0 0 0 0 0 0 0 0 0 0 0 0 0 0 0 0 0 0 0 0 0 0 0 0 0 0 0 0 0 0 0 0 0 0 0
0 0 0 0 0 0 0 0 0 0 0 0 0 0 0 0 0 0 0 0 0 0 0 0 0 0 0 0 0 0 0 0 0 0 0 0 0 0 0 0 0 0 0 0
0 0 0 0 0 0 0 0 0 0 0 0 0 0 0 0 0 0 0 -0 -0 0 0 0 0 0 0 0 0 0 0 0 0 0 0 0 0 0 0 0 0 0 0 0
0 0 0 0 0 0 0 0 0 0 0 0 0 0 0 0 0 -0 -0 -0 -0 0 0 0 0 0 0 0 0 0 0 0 0 0 0 0 0 0 0 0 0 0 0 0
0 0 0 0 0 0 0 0 0 0 0 0 0 0 0 0 0 -0 -0 -0 -0 0 0 0 0 0 0 0 0 0 0 0 0 0 0 0 0 0 -0 -0 -0 0 0 0
0 0 0 0 0 0 0 0 0 0 0 0 0 0 0 0 0 -0 -0 -0 0 0 0 0 0 0 0 0 0 0 0 0 0 0 0 0 0 0 -0 -0 -0 0 0 0
0 0 0 0 0 0 0 0 0 0 0 0 0 0 0 0 0 0 -0 -0 0 0 0 0 0 0 0 0 0 0 0 0 0 0 0 0 0 0 -0 -0 -0 0 0 0
0 0 0 0 0 0 0 0 0 0 0 0 0 0 0 0 0 0 0 0 0 0 0 0 0 0 0 0 0 0 0 0 0 0 0 0 0 0 0 0 0 0 0 0
0 0 0 0 0 0 0 0 0 0 0 0 0 0 0 0 0 0 0 0 0 0 0 0 0 0 0 0 0 0 0 0 0 0 0 0 0 0 0 0 0 0 0 0
0 0 0 0 0 0 0 0 0 0 0 0 0 0 0 0 0 0 0 0 0 0 0 0 0 0 0 0 0 0 0 0 0 0 0 0 0 0 0 0 0 0 0 0
0 0 0 0 0 0 0 0 0 0 0 0 0 0 0 0 0 0 0 -0 -0 -0 0 0 0 0 0 0 0 0 0 0 0 0 0 0 0 0 0 0 0 0 0 -0
0 0 0 0 0 0 0 0 0 0 0 0 0 0 0 0 0 0 0 -0 -0 -0 0 0 0 0 0 0 0 0 0 0 0 0 0 0 0 0 0 0 0 0 0 -0
0 0 0 0 0 0 0 0 0 0 0 0 0 0 0 0 0 0 0 0 0 0 0 0 0 0 0 0 0 0 0 0 0 0 0 0 0 0 0 0 0 0 0 0
0 0 0 0 0 0 0 0 0 0 0 0 0 0 0 0 0 0 0 0 0 0 0 0 0 0 0 0 0 0 0 0 0 0 0 0 0 0 0 0 0 0 0 0
0 0 0 0 0 0 0 0 0 0 0 0 0 0 0 0 0 0 0 0 0 0 0 0 0 0 0 0 0 0 0 0 0 0 0 0 0 0 0 0 0 0 0 0
0 0 0 0 0 0 0 0 0 0 0 0 0 0 0 0 0 0 0 0 0 0 0 0 0 0 0 0 0 0 0 0 0 0 0 0 0 0 0 0 0 0 0 0
0 0 0 0 0 0 0 0 0 0 0 0 0 0 0 0 0 0 0 0 0 0 0 0 0 0 0 0 0 0 0 0 0 0 0 0 0 0 0 0 0 0 0 0
0 0 0 0 0 0 0 0 0 0 0 0 0 0 0 0 0 0 0 0 0 0 0 0 0 0 0 0 0 0 0 0 0 0 0 0 0 0 0 0 0 0 0 0
Wind_Speed
5 8 11 16 18 19 16 18 21 21 16 12 19 22 19 20 22 23 22 18 12 11 10 11 12 12 12 11 9 8 9 10 11 11 12 12 13 12 12 12 14 17 17 18
5 13 17 13 7 9 14 18 22 21 12 9 16 20 18 19 20 19 17 14 11 10 10 13 15 15 15 15 14 11 8 7 10 10 10 9 10 10 11 10 12 15 16 17
14 6 4 9 11 12 15 15 17 18 15 9 11 12 8 9 14 16 12 7 5 7 12 15 16 17 17 17 17 13 11 7 7 9 8 6 7 6 8 10 10 12 14 15
11 5 2 6 10 11 15 12 13 14 11 8 5 13 5 11 15 12 5 5 11 13 15 17 18 19 20 19 16 16 14 10 5 5 7 9 8 9 9 8 8 10 13 14
7 4 5 9 10 9 9 3 4 6 9 12 6 11 8 7 10 7 6 12 15 15 17 18 19 18 19 19 18 17 16 14 9 3 6 8 8 7 6 6 9 10 11 14
7 2 6 6 3 4 3 2 4 3 6 14 9 11 8 7 7 2 11 14 15 15 16 16 17 17 19 19 18 18 18 17 14 8 4 6 9 9 8 8 7 8 8 10
7 6 5 4 4 2 5 5 8 8 7 11 3 7 8 8 2 8 11 13 14 14 15 16 18 19 19 20 20 19 19 19 17 13 9 6 8 9 10 9 9 9 8 9
11 14 7 8 9 5 6 7 8 10 13 15 4 10 7 2 9 12 12 12 12 14 14 15 16 16 16 17 18 18 19 18 18 16 13 10 8 6 7 9 9 9 8 9
10 10 1 3 4 4 5 9 8 8 9 15 16 12 4 3 9 10 10 11 12 12 12 13 14 15 15 16 16 16 16 16 17 16 15 13 11 9 9 10 9 9 9 8
5 12 6 2 2 5 7 4 3 7 9 16 21 26 17 9 5 6 7 9 9 10 11 11 11 12 12 13 13 14 15 15 15 15 13 11 13 12 11 9 10 10 11 11
4 7 11 6 11 16 10 8 11 10 9 12 17 16 2 8 7 6 6 7 8 9 9 9 9 9 9 10 11 12 13 14 15 15 14 13 13 13 12 10 11 11 11 11
7 7 12 17 14 10 15 18 17 16 16 13 14 12 7 9 6 5 5 5 5 6 7 8 8 8 9 10 11 11 12 12 13 13 12 12 12 13 13 12 12 12 12 11
3 5 9 11 7 2 5 6 8 10 10 13 15 8 8 7 6 5 4 3 2 4 7 8 9 9 10 10 10 10 11 11 11 11 12 12 13 14 14 13 13 12 12 12
7 8 14 20 18 10 10 10 9 9 9 11 12 11 9 11 4 2 3 3 1 2 5 7 8 9 10 10 10 10 10 10 10 11 11 11 12 13 13 13 13 13 12 12
3 10 17 20 22 21 21 21 21 21 20 18 18 22 22 12 3 1 2 3 3 3 5 6 7 7 9 10 10 10 11 10 10 11 11 11 11 12 12 12 13 13 12 11
3 9 12 17 21 21 23 24 25 25 24 25 27 27 5 3 1 3 4 5 6 6 7 7 8 8 8 8 9 9 11 11 10 11 11 11 11 11 11 12 13 13 13 12
6 7 11 18 18 17 21 20 24 24 24 25 25 10 5 2 4 6 8 9 10 9 9 10 10 10 9 9 9 9 10 10 10 10 10 10 11 11 12 13 13 14 14 14
13 12 9 11 8 22 14 5 11 18 17 8 2 6 2 4 8 9 10 12 13 12 12 12 12 13 12 11 10 10 9 10 10 10 10 10 11 13 14 14 14 14 14 14
17 16 11 9 16 19 12 5 6 9 8 5 7 4 3 6 10 12 10 12 14 14 14 14 14 14 14 13 12 10 11 11 12 12 12 11 11 13 15 15 16 15 15 15
5 11 11 10 13 12 7 2 2 1 4 5 6 6 8 7 10 12 10 11 13 15 14 14 14 14 14 14 11 11 13 14 14 13 13 13 12 12 14 16 17 16 15 16
3 6 11 14 14 10 3 3 3 5 2 6 10 11 12 12 13 15 14 14 14 16 16 15 14 14 14 13 11 14 16 16 14 13 13 14 14 14 16 17 16 16 16 17
6 6 6 5 9 9 4 6 6 6 4 9 12 14 15 16 16 16 16 16 16 16 16 15 13 14 15 13 13 16 18 17 15 14 15 16 15 15 15 16 17 17 16 18
10 9 5 8 8 5 6 10 10 12 16 19 19 17 16 16 17 17 17 16 14 13 12 12 12 15 16 13 13 17 18 16 16 16 17 17 18 17 17 17 18 17 15 15
12 11 10 11 17 19 19 20 20 20 21 20 19 17 16 17 16 15 12 11 11 10 10 10 12 14 16 15 14 15 17 17 16 19 21 19 19 19 17 15 15 15 14 15
14 7 11 16 21 21 22 21 21 20 18 16 14 9 9 9 9 9 8 9 9 10 10 10 12 15 17 17 17 16 17 17 20 21 21 20 19 19 17 16 15 17 17 17
18 17 17 17 20 18 18 17 17 18 16 9 5 3 0 2 6 7 8 8 9 11 11 12 13 15 17 17 18 17 16 17 19 20 19 16 15 15 15 16 17 24 27 31
Wind_Direction
170 200 218 226 226 252 282 283 280 278 280 283 281 284 286 284 280 276 276 280 298 314 331 349 353 353 346 339 323 296 264 234 215 208 209 214 217 215 216 215 208 202 196 191
171 231 240 254 262 258 262 271 276 282 290 277 284 288 285 273 268 268 276 295 319 330 0 16 14 13 7 2 353 338 308 263 226 214 210 214 219 220 219 218 217 210 203 197
235 263 250 231 238 247 253 259 276 287 305 278 295 284 257 265 263 268 276 297 338 12 23 23 21 18 14 10 3 357 347 314 257 228 216 207 215 225 218 218 217 215 214 207
250 277 219 219 241 240 266 268 274 283 291 290 328 300 255 261 277 280 307 53 57 46 37 30 24 21 17 12 9 12 11 2 329 248 221 213 213 220 222 219 217 212 216 217
239 218 203 225 242 224 251 305 277 270 274 281 240 265 288 236 264 277 61 65 54 46 41 35 28 23 21 17 15 17 21 22 10 321 242 233 239 244 245 227 220 214 211 218
262 236 229 237 253 224 237 271 259 230 262 274 261 236 288 216 231 71 64 54 47 46 44 38 33 29 26 23 22 21 23 24 16 5 313 259 256 257 254 239 227 215 210 214
264 227 224 207 219 186 186 251 285 275 255 273 116 233 258 244 354 47 58 56 51 46 40 35 30 28 26 24 24 24 24 23 18 13 357 321 285 270 261 253 240 227 215 212
281 277 219 202 221 235 197 216 241 270 277 284 239 247 253 2 64 70 70 67 56 46 40 37 31 28 25 23 22 23 24 23 19 16 7 351 325 293 276 265 255 243 233 224
276 280 21 197 214 202 198 221 249 252 268 277 267 256 237 120 80 69 65 59 51 45 40 35 30 27 23 21 21 20 20 19 18 15 12 5 353 329 302 285 267 259 250 239
312 291 285 313 207 230 243 260 197 229 246 256 265 269 262 173 132 87 67 57 48 39 35 31 27 24 20 17 16 18 19 17 14 13 11 6 3 352 332 311 287 271 261 249
185 261 280 255 239 258 231 223 234 247 239 250 260 263 14 140 134 112 79 57 44 33 28 25 23 21 19 16 14 15 14 13 10 8 4 4 4 359 351 335 315 297 279 261
221 244 268 269 269 265 257 248 242 244 243 240 253 255 112 127 129 121 102 74 49 31 22 17 14 13 12 11 10 10 9 9 4 360 359 1 1 0 357 349 336 320 300 278
195 229 268 273 254 211 246 259 264 264 264 249 249 245 136 143 140 135 131 119 74 26 14 6 3 1 1 0 360 1 1 3 357 354 354 357 358 356 353 348 342 332 315 295
289 245 254 267 278 290 280 276 268 262 263 265 257 271 249 250 248 162 169 177 161 16 1 353 349 347 347 347 348 350 350 355 351 348 349 352 352 348 344 340 338 335 325 308
257 261 265 269 274 276 276 276 274 269 268 271 277 279 283 299 313 312 253 238 253 297 323 328 325 324 327 331 334 338 337 343 343 341 341 343 340 339 335 335 334 332 327 315
253 265 276 273 274 275 273 269 268 269 272 272 274 276 318 68 338 313 308 287 273 288 309 315 311 307 304 306 311 316 320 328 332 329 327 327 329 331 332 332 329 327 325 320
249 255 268 271 278 280 262 256 263 266 265 270 277 299 85 26 316 308 308 298 285 291 305 312 314 311 300 294 293 295 299 308 312 313 315 319 323 325 326 324 323 323 321 318
250 254 258 268 257 254 269 288 263 268 275 287 104 114 120 316 301 289 286 289 283 286 297 306 310 309 305 296 290 287 287 290 293 298 302 309 318 319 320 319 316 315 313 309
238 246 252 254 259 267 273 245 223 246 258 175 156 170 269 304 296 283 277 276 274 282 291 296 300 301 300 296 294 289 285 287 289 292 296 304 311 312 313 311 309 309 306 301
231 230 241 244 255 262 280 85 123 202 250 181 196 234 280 294 289 299 310 291 279 282 287 291 295 297 295 297 301 292 290 291 291 293 295 297 300 300 300 300 301 300 297 293
219 220 229 245 256 267 267 147 164 220 235 187 222 254 272 268 272 290 294 289 285 285 287 291 294 294 296 304 305 296 294 293 296 296 292 291 292 293 292 292 291 291 290 289
232 235 221 224 245 261 145 166 214 242 262 271 276 278 276 275 278 283 286 289 291 293 296 302 303 300 303 310 310 300 297 303 306 300 294 292 291 290 288 286 285 284 283 282
227 230 217 204 242 273 197 220 250 276 286 292 293 291 283 278 281 287 291 294 298 303 309 315 313 305 304 311 311 301 304 312 310 302 295 292 290 285 282 280 280 280 276 271
241 233 241 250 259 264 265 264 269 274 278 283 285 286 282 280 286 292 296 301 308 313 317 319 316 307 305 312 313 310 312 313 307 298 295 293 291 287 283 278 274 271 269 268
244 227 236 250 262 271 267 265 267 271 274 273 275 275 277 282 286 296 302 308 312 316 322 322 314 307 306 311 310 311 309 306 299 296 294 293 289 287 285 279 271 271 263 262
246 242 243 252 261 263 269 273 272 271 274 270 261 251 245 304 301 310 308 315 319 319 320 314 309 306 306 307 304 304 302 298 295 295 294 292 290 287 283 282 280 273 270 271